Printer-friendly version

IAU Minor Planet Center

Minor Planet Center

(192) Nausikaa

Orbital Elements

The following orbital elements are taken from MPC 31001:
  (192) Nausikaa
Epoch 2000 Feb. 26.0 TT = JDT 2451600.5                 Goffin
M 306.42911              (2000.0)            P               Q
n   0.26468743     Peri.   29.95512     +0.97148219     -0.23470382
a   2.4024102      Node   343.51643     +0.18702922     +0.84589182
e   0.2469963      Incl.    6.82351     +0.14574781     +0.47893752
P   3.72           H    7.13          G   0.03           U   0
From 864 observations at 67 oppositions, 1847-1996, mean residual 0".53.
An explanation of the orbital elements is available.

These orbital elements are also available in forms suitable for loading into a number of popular planetarium-type software programs.


Ephemeris

The following ephemeris is at intervals of five days. A daily ephemeris covering the same time interval is also available.

Date    TT    R. A. (2000) Decl.     Delta      r     Elong.  Phase     V
 
2000 07 15    01 09.18   +07 41.5    1.479    1.851    93.9    33.2    10.9
2000 07 20    01 16.56   +08 48.4    1.428    1.845    96.6    33.2    10.9
2000 07 25    01 23.60   +09 54.2    1.377    1.839    99.3    33.0    10.8
2000 07 30    01 30.27   +10 58.7    1.327    1.834   102.2    32.8    10.7
2000 08 04    01 36.50   +12 01.7    1.279    1.829   105.2    32.4    10.6
2000 08 09    01 42.25   +13 03.1    1.232    1.824   108.3    31.8    10.5
2000 08 14    01 47.45   +14 02.8    1.186    1.821   111.5    31.2    10.4
2000 08 19    01 52.05   +15 00.6    1.142    1.817   114.9    30.3    10.2
2000 08 24    01 55.97   +15 56.4    1.100    1.815   118.5    29.3    10.1
2000 08 29    01 59.14   +16 49.6    1.059    1.812   122.3    28.1    10.0
2000 09 03    02 01.46   +17 40.1    1.021    1.811   126.3    26.7     9.9
2000 09 08    02 02.90   +18 27.5    0.986    1.810   130.4    25.1     9.7
2000 09 13    02 03.41   +19 11.3    0.953    1.809   134.8    23.2     9.6
2000 09 18    02 02.94   +19 50.9    0.924    1.809   139.4    21.2     9.5
2000 09 23    02 01.49   +20 25.9    0.898    1.810   144.2    18.9     9.3
2000 09 28    01 59.09   +20 55.4    0.876    1.811   149.2    16.5     9.2
2000 10 03    01 55.81   +21 19.0    0.858    1.812   154.2    13.9     9.0
2000 10 08    01 51.81   +21 36.2    0.846    1.815   159.2    11.3     8.9
2000 10 13    01 47.26   +21 46.9    0.838    1.817   163.8     8.8     8.7
2000 10 18    01 42.39   +21 51.2    0.835    1.821   167.6     6.8     8.6
2000 10 23    01 37.43   +21 49.6    0.838    1.825   169.1     5.9     8.6
2000 10 28    01 32.63   +21 42.8    0.846    1.829   167.6     6.7     8.7
2000 11 02    01 28.26   +21 32.0    0.860    1.834   163.9     8.6     8.8
2000 11 07    01 24.52   +21 18.8    0.879    1.839   159.3    11.0     9.0
2000 11 12    01 21.58   +21 04.4    0.903    1.845   154.3    13.5     9.1
2000 11 17    01 19.54   +20 50.3    0.931    1.851   149.3    15.8     9.3
2000 11 22    01 18.46   +20 37.4    0.965    1.858   144.3    18.1     9.5
2000 11 27    01 18.36   +20 26.7    1.002    1.866   139.4    20.1     9.7
2000 12 02    01 19.26   +20 19.1    1.043    1.873   134.8    21.9     9.8
2000 12 07    01 21.10   +20 14.9    1.088    1.882   130.3    23.5    10.0
2000 12 12    01 23.84   +20 14.3    1.136    1.890   126.0    24.9    10.1
2000 12 17    01 27.40   +20 17.3    1.186    1.899   121.8    26.1    10.3
2000 12 22    01 31.73   +20 23.9    1.239    1.909   117.8    27.1    10.4
2000 12 27    01 36.76   +20 33.9    1.295    1.918   114.0    27.9    10.6
2001 01 01    01 42.43   +20 47.0    1.352    1.928   110.3    28.6    10.7
2001 01 06    01 48.69   +21 02.9    1.411    1.939   106.8    29.0    10.8
2001 01 11    01 55.47   +21 21.3    1.471    1.950   103.4    29.4    10.9
2001 01 16    02 02.72   +21 41.8    1.533    1.961   100.0    29.6    11.0
2001 01 21    02 10.40   +22 03.9    1.596    1.972    96.8    29.7    11.1

Back to Bright Minor Planets

Astronomical Headlines Index


Valid HTML 4.01!